Regional Weather Roundup
Issued by NWS

Home | Current Version | Previous Version | Graphics & Text | Print | Product List | Glossary On
Versions: 1 2 3 4 5 6 7 8 9 10 11 12 13 14 15 16 17 18 19 20 21 22 23 24 25 26 27 28 29 30
000
ASUS45 KGTF 170710
RWRMT
MONTANA HOURLY WEATHER ROUNDUP
NATIONAL WEATHER SERVICE GREAT FALLS MT
100 AM MDT FRI APR 17 2015

NOTE: "FAIR" INDICATES FEW OR NO CLOUDS BELOW 12000 FEET WITH NO
SIGNIFICANT WEATHER AND/OR OBSTRUCTIONS TO VISIBILITY.

MTZ001>007-043-170800-
WEST OF THE DIVIDE

CITY           SKY/WX    TMP DP  RH WIND       PRES   REMARKS
KALISPELL      SUNNY     32  28  85 W3        30.21R
MISSOULA       CLEAR     39  27  62 CALM      30.23R
BUTTE          CLEAR     29  24  82 SE6       30.26R WCI  23
DEER LODGE       N/A     32  21  64 W3        30.28R
EUREKA           N/A     39  30  70 CALM      30.22R
HAMILTON         N/A     39  28  65 S8        30.23R
LIBBY            N/A     37  28  70 CALM      30.24R
$$

MTZ008-052>055-170800-
SOUTHWEST MONTANA

CITY           SKY/WX    TMP DP  RH WIND       PRES   REMARKS
BOZEMAN        CLEAR     28  25  88 E6        30.25R WCI  22
DILLON         CLEAR     32  26  78 S3        30.24R
$$

MTZ009-010-012-014-046-048-049-054-170800-
EAST SLOPES AND CENTRAL MONTANA

CITY           SKY/WX    TMP DP  RH WIND       PRES   REMARKS
CUT BANK       CLEAR     41  27  57 W14       30.16R
GREAT FALLS    CLEAR     39  26  59 SW13      30.17R WCI  31
HELENA         CLEAR     39  23  52 CALM      30.22R
$$

MTZ011-013-016-021-045-047-050-051-170800-
NORTH CENTRAL MONTANA

CITY           SKY/WX    TMP DP  RH WIND       PRES   REMARKS
HAVRE          CLEAR     37  29  72 CALM      30.12R
LEWISTOWN      CLEAR     34  25  69 SE7       30.18R WCI  28
FORT BENTON      N/A     43  27  52 CALM      30.16R
$$

MTZ017>020-022>042-056>058-061-062-170800-
EASTERN PLAINS

CITY           SKY/WX    TMP DP  RH WIND       PRES   REMARKS
BAKER          CLEAR     35  25  66 CALM      30.22S
BILLINGS       CLEAR     41  30  65 SW9       30.22S
GLASGOW        PTCLDY    38  21  50 SE7       30.15R
JORDAN           N/A     41  25  53 W5        30.18R
LIVINGSTON     CLEAR     30  23  75 NW5       30.23S
MILES CITY     CLEAR     38  18  44 SE5       30.21R
SIDNEY         CLEAR     32  19  59 CALM      30.19R
WOLF POINT     PTCLDY    36  21  54 CALM      30.17R
BIG TIMBER       N/A     36  27  69 SW7       30.23S WCI  30
FORSYTH          N/A     45  30  57 CALM      30.21S
PLENTYWOOD       N/A     45  16  31 CALM      30.15R
POPLAR           N/A     39  18  41 CALM      30.18R
$$

REGIONAL REPORTS...DAKOTAS

CITY           SKY/WX    TMP DP  RH WIND       PRES   REMARKS
WILLISTON      CLEAR     37  19  48 CALM      30.16S
MINOT          CLEAR     41  22  46 SW10      30.14S
DICKINSON      CLEAR     37  21  52 CALM      30.18S
BEACH          FAIR      36  21  55 CALM      30.21S
CROSBY         FAIR      37  25  60 S9        30.14S WCI  31
WATFORD CITY   FAIR      32  18  55 SW5       30.16S
BISMARCK       CLEAR     37  22  54 N3        30.19S
GRAND FORKS    CLEAR     30  22  72 SW3       30.13S
FARGO          CLEAR     36  21  54 CALM      30.14R
BUFFALO SD       N/A     38  25  59 W6        30.16S
RAPID CITY     CLOUDY    46  32  58 NW10      30.22R
$$

REGIONAL REPORTS...WYOMING/IDAHO/WASHINGTON

CITY           SKY/WX    TMP DP  RH WIND       PRES   REMARKS
GILLETTE       CLEAR     29  26  89 S7        30.24R WCI  22
SHERIDAN       PTCLDY    32  26  78 CALM      30.23F
BUFFALO WY     PTCLDY    34  24  67 W6        30.23F WCI  29
CODY           PTCLDY    36  28  75 SW14      30.24F WCI  27
YELLOWSTONE LA   N/A     24  20  84 CALM      30.27F
IDAHO FALLS    CLEAR     39  25  57 NE9       30.18R
SALMON         CLEAR     34  21  60 SE3       30.22R
BOISE          CLEAR     47  30  51 SE9       30.17R
SPOKANE        CLEAR     44  32  62 SW7       30.22S
$$

REGIONAL REPORTS...ALBERTA

CITY           SKY/WX    TMP DP  RH WIND       PRES   REMARKS
EDMONTON       MOCLDY    39  32  75 SW6       30.17R
CALGARY        CLEAR     39  23  52 N8        30.18R
LETHBRIDGE     CLEAR     45  28  53 W18       30.16R
MEDICINE HAT   CLEAR     39  30  70 S5        30.09R
$$

REGIONAL REPORTS...SASKATCHEWAN

CITY           SKY/WX    TMP DP  RH WIND       PRES   REMARKS
SWIFT CURRENT  CLEAR     43  27  52 SW12G18   30.08R
REGINA         PTCLDY    43  28  56 SW12      30.05S
SASKATOON      CLEAR     45  27  49 N10G20    30.05R
$$



USA.gov is the U.S. government's official web portal to all federal, state and local government web resources and services.